TITAN 3C TRANSTAGE DEB, 43452

Orbit data source: Space-Track

TITAN 3C TRANSTAGE DEB, 43452 is space debris in GEO originally from a launch on Sun, 09 Feb 1969 UTC launched from the Air Force Eastern Test Range (AFETR). Debris objects in space refer to the collection of defunct objects orbiting the Earth. Examples of debris include non-operational satellites, rocket bodies, and fragments generated from explosions, collisions, or faulty payload assembly.

Loading next visibility...
Identifier
43452, 1969-013K
Orbit
GEO
Country
Flag of USUS
Related business
Manufacturer
Martin Marietta
Mission
Spacecraft
Bus & Motor
Unknown
Mass
Unknown
Launch date (UTC)
1969-02-09 (57 years ago)
Launch vehicle
Unknown
Launch site
Air Force Eastern Test Range (AFETR)
Object type
Payload
Rocket body
Debris
Shape & HBR
Unknown
Radar Cross Section
RCS unknown

Expand to show TLE details & history
Last TLE update: 1 month ago

TLE from 1 month ago
0 TITAN 3C TRANSTAGE DEB
1 43452U 69013K   25216.60265595 -.00000036  00000-0  00000-0 0  9991
2 43452   0.6592 167.5691 0657491 292.8108 267.1051  1.03152783 27538
Epoch: 2025-08-04T14:27Z
TLE epoch observation values (Epoch: 2025-08-04T14:27:49.474Z)
Latitude
-0.16164°
Longitude
-170.36473°
Altitude
35,321.832 km
Speed
3.08 km/s
True Right ascension
23h 59m 59s
True Declination
0° 09' 41"
Sunlit
Object was in daylight at epoch
Visualization orbit readout
Latitude
Unknown
Longitude
Unknown
Altitude
Unknown
Speed
Unknown
Apparent Right ascension
Unknown
Apparent Declination
Unknown
Sunlit
N/A
Visualization observer readout
Local Sidereal Time
00:57:16
Azimuth
Unknown
Elevation
Unknown
Doppler factor
Unknown
Orbital elements
Apogee altitude
37,719.403 km
Perigee altitude
32,278.397 km
Semi-major axis
41,377.037 km
Eccentricity
0.06575
Inclination
0.6592°
RAAN
167.5691°
Arg. of periapsis
292.8108°
True anomaly
259.63276°
Mean anomaly
267.1051°
Eccentric anomaly
263.3632°
Mean motion
0.25787 °/min
Orbital period
1,396.04 mins
BSTAR
0
Loading maneuver chart data...
Computing Atmospheric mass density...

Documentation

Showing up to 5 results
|